Seattle Boeing, WA
on Wednesday, January 30, 2013

Wednesday
Previous Day Next Day
Daily Summary
 ActualAverage (KSEA)Record (KSEA)
Temperature
Mean Temperature °F 43°F  
Max Temperature 50°F 49°F 59°F (1992)
Min Temperature 46°F 37°F 7°F (1950)
Degree Days
Heating Degree Days 17 22  
Month to date heating degree days 688  
Since 1 July heating degree days 2626  
Cooling Degree Days 0 0  
Month to date cooling degree days 0  
Year to date cooling degree days 0  
Moisture
Dew Point 45°F   
Average Humidity 89    
Maximum Humidity 93    
Minimum Humidity 83    
Precipitation
Precipitation 0.06 in 0.15 in 1.00 in (1952)
Month to date precipitation 5.41  
Year to date precipitation 5.41  
Snow
Snow 0.00 in in 3.00 in (1974)
Month to date snowfall  
Since 1 July snowfall  
Snow Depth in   
Wind
Wind Speed 7 mph   
Max Wind Speed 10 mph   
Max Gust Speed mph   
Visibility 5 miles   
Events Rain   

Key: T is trace of precipitation, MM is missing value
Source: NWS Daily Summary
Time(PST)TemperatureDew PointHumidity Pressure Visibility Wind DirectionWind SpeedGust SpeedPrecipitationEvents Conditions
12:01 AM 46.4°F 42.8°F 87% 30.34 in 4.0 miles SE 8.1 mph - N/A   Overcast
12:53 AM 46.0°F 43.0°F 89% 30.32 in 10.0 miles SE 6.9 mph - 0.00 in   Overcast
1:53 AM 46.9°F 43.0°F 86% 30.33 in 10.0 miles SSE 6.9 mph - 0.01 in Rain Light Rain
2:53 AM 48.0°F 43.0°F 83% 30.34 in 10.0 miles SSE 8.1 mph - 0.00 in Rain Light Rain
3:53 AM 46.9°F 44.1°F 90% 30.35 in 3.0 miles SSE 8.1 mph - 0.01 in   Overcast
4:53 AM 46.9°F 44.1°F 90% 30.34 in 4.0 miles SE 10.4 mph - N/A   Overcast
5:21 AM 46.4°F 44.6°F 93% 30.34 in 3.0 miles SE 8.1 mph - N/A   Overcast
5:53 AM 46.9°F 44.1°F 90% 30.35 in 2.5 miles SE 10.4 mph - N/A   Overcast
6:53 AM 46.9°F 45.0°F 93% 30.35 in 2.5 miles SE 6.9 mph - 0.01 in Rain Light Rain
7:53 AM 48.0°F 45.0°F 89% 30.36 in 2.5 miles SSE 6.9 mph - 0.00 in   Overcast
8:53 AM 48.0°F 45.0°F 89% 30.36 in 1.2 miles SE 6.9 mph - N/A   Overcast
9:53 AM 48.0°F 46.0°F 93% 30.38 in 1.5 miles SE 8.1 mph - N/A   Overcast
10:53 AM 48.9°F 46.0°F 90% 30.38 in 2.0 miles SSE 5.8 mph - 0.01 in   Overcast
11:28 AM 48.2°F 46.4°F 93% 30.38 in 1.5 miles SSE 6.9 mph - N/A   Overcast
11:53 AM 48.9°F 46.0°F 90% 30.38 in 1.8 miles SSE 4.6 mph - N/A   Overcast
12:53 PM 48.9°F 46.0°F 90% 30.38 in 1.8 miles SSE 5.8 mph - N/A   Overcast
1:53 PM 50.0°F 46.9°F 89% 30.38 in 2.0 miles SSE 6.9 mph - N/A   Overcast
2:53 PM 50.0°F 46.0°F 86% 30.37 in 4.0 miles SSE 6.9 mph - N/A   Overcast
3:53 PM 50.0°F 46.9°F 89% 30.37 in 4.0 miles SSE 4.6 mph - N/A   Overcast
4:00 PM 50.0°F 46.4°F 87% 30.37 in 5.0 miles SE 4.6 mph - N/A   Overcast
4:07 PM 50.0°F 46.4°F 87% 30.37 in 5.0 miles SE 5.8 mph - N/A   Overcast
4:53 PM 50.0°F 46.9°F 89% 30.37 in 6.0 miles SSE 8.1 mph - N/A   Overcast
5:33 PM 50.0°F 46.4°F 87% 30.37 in 10.0 miles SE 4.6 mph - N/A   Overcast
5:51 PM 50.0°F 46.4°F 87% 30.37 in 10.0 miles SSE 4.6 mph - N/A   Overcast
5:53 PM 50.0°F 46.0°F 86% 30.37 in 5.0 miles SSE 5.8 mph - N/A   Overcast
6:53 PM 50.0°F 46.0°F 86% 30.36 in 10.0 miles SSE 4.6 mph - N/A   Overcast
7:53 PM 48.9°F 46.0°F 90% 30.36 in 10.0 miles South 6.9 mph - N/A   Overcast
8:53 PM 48.9°F 46.0°F 90% 30.36 in 4.0 miles Variable 5.8 mph - N/A   Overcast
9:53 PM 48.9°F 46.0°F 90% 30.37 in 7.0 miles SSW 4.6 mph - N/A   Overcast
10:53 PM 48.0°F 45.0°F 89% 30.37 in 5.0 miles SE 5.8 mph - 0.02 in Rain Light Rain
11:53 PM 48.0°F 45.0°F 89% 30.38 in 10.0 miles SSE 4.6 mph - 0.00 in   Overcast
Moon Phase
Jan. 30 Feb. 03 Feb. 10 Feb. 17 Feb. 25
Sunrise:07:37 AM (PST) Moon Rise:09:34 PM (PST)
Sunset:05:08 PM (PST) Moon Set:08:48 AM (PST)

Copyright © 2014 The Weather Underground, Inc.